FW9349 Weather Reports


Display with metric or nautical units.
time (UTC)temp
F
wind
direction
speed
MPH
gust
MPH
rain 1hr
in
rain 24hr
in
rain mn
in
humidity
%
barometer
mb
20260507040050 49 293 4.0 8.0 0.00 0.05 0.00 87 1011.9
20260507034547 49 298 4.0 8.0 0.00 0.05 0.00 87 1011.9
20260507033049 49 302 3.0 7.0 0.00 0.05 0.00 87 1011.9
20260507031548 49 306 2.0 4.0 0.00 0.05 0.00 87 1011.6
20260507030105 49 321 1.0 5.0 0.00 0.05 0.00 87 1011.5
20260507024551 49 321 1.0 8.0 0.00 0.05 0.00 87 1011.5
20260507023052 49 315 4.0 9.0 0.00 0.05 0.00 87 1011.4
20260507021551 50 315 2.0 9.0 0.00 0.05 0.00 86 1011.2
20260507020052 50 325 3.0 10.0 0.00 0.05 0.00 86 1011.1
20260507014608 50 313 2.0 7.0 0.00 0.05 0.00 86 1011.1
20260507013052 50 307 1.0 5.0 0.00 0.05 0.00 86 1010.9
20260507011546 50 327 2.0 7.0 0.00 0.05 0.00 86 1011.0
20260507010050 50 360 1.0 6.0 0.00 0.05 0.00 86 1010.9
20260507004547 50 320 1.0 9.0 0.00 0.05 0.00 86 1010.9
20260507003047 50 0 1.0 10.0 0.00 0.05 0.00 86 1010.8
20260507001552 50 306 2.0 8.0 0.00 0.05 0.00 86 1010.7
20260507000048 50 311 1.0 5.0 0.00 0.05 0.00 86 1010.9
20260506234545 50 0 0.0 3.0 0.00 0.05 0.00 86 1010.8
20260506233047 50 0 0.0 4.0 0.00 0.05 0.00 86 1010.7
20260506231544 50 318 2.0 5.0 0.00 0.05 0.00 86 1010.6
20260506230057 51 355 0.0 6.0 0.00 0.05 0.00 87 1010.6
20260506224550 51 341 2.0 8.0 0.00 0.05 0.00 87 1010.4
20260506223046 51 342 3.0 11.0 0.00 0.05 0.00 86 1010.3
20260506221548 51 348 3.0 8.0 0.00 0.05 0.00 87 1010.1
20260506220047 51 312 3.0 10.0 0.00 0.05 0.00 87 1010.1
20260506214546 52 331 3.0 9.0 0.00 0.11 0.05 87 1009.9
20260506213053 52 331 1.0 5.0 0.00 0.11 0.05 87 1009.9
20260506211547 52 318 3.0 9.0 0.00 0.11 0.05 87 1009.6
20260506210050 52 309 4.0 11.0 0.00 0.11 0.05 86 1009.6
20260506204545 53 317 3.0 8.0 0.00 0.20 0.05 86 1009.4
20260506203051 53 310 2.0 7.0 0.00 0.20 0.05 87 1009.3
20260506201604 53 317 2.0 9.0 0.00 0.20 0.05 87 1009.3
20260506200051 54 0 1.0 5.0 0.00 0.20 0.05 87 1009.0
20260506194553 54 330 2.0 5.0 0.00 0.20 0.05 87 1008.8
20260506193051 54 314 1.0 5.0 0.00 0.20 0.05 86 1008.6
20260506191548 54 304 3.0 8.0 0.00 0.20 0.05 86 1008.4
20260506190051 54 333 2.0 11.0 0.00 0.20 0.05 87 1008.3
20260506184554 55 333 0.0 7.0 0.00 0.20 0.05 89 1008.1
20260506183047 55 349 1.0 7.0 0.01 0.20 0.05 88 1007.8
20260506181606 55 308 1.0 7.0 0.03 0.20 0.05 88 1007.7
20260506180048 55 317 2.0 7.0 0.03 0.20 0.05 88 1007.5
20260506174549 56 300 3.0 8.0 0.03 0.20 0.05 87 1007.5
20260506173112 56 275 7.0 10.0 0.03 0.18 0.03 86 1007.2
20260506171556 57 265 5.0 13.0 0.02 0.17 0.02 83 1007.1
20260506170050 59 259 9.0 15.0 0.02 0.17 0.02 78 1006.9
20260506164547 60 252 7.0 17.0 0.01 0.16 0.01 75 1006.6
20260506163102 63 237 4.0 8.0 0.00 0.14 0.00 66 1006.2
20260506161546 63 208 4.0 9.0 0.00 0.14 0.00 64 1006.1
20260506160046 64 205 2.0 6.0 0.00 0.14 0.00 64 1006.1
20260506154552 64 266 4.0 9.0 0.00 0.14 0.00 63 1006.3
20260506153048 64 252 1.0 11.0 0.00 0.14 0.00 62 1006.4
20260506151549 64 287 2.0 12.0 0.00 0.14 0.00 63 1006.3
20260506150055 64 217 5.0 11.0 0.00 0.14 0.00 61 1006.3
20260506144550 63 248 6.0 12.0 0.00 0.21 0.00 62 1006.0
20260506143051 64 252 6.0 14.0 0.00 0.21 0.00 61 1006.0
20260506141553 64 246 6.0 16.0 0.00 0.21 0.00 59 1006.0
20260506140058 64 187 7.0 16.0 0.00 0.21 0.00 58 1006.0
20260506134545 65 240 8.0 16.0 0.00 0.23 0.00 61 1005.9
20260506133047 64 277 9.0 14.0 0.00 0.23 0.00 63 1006.1
20260506131545 64 231 9.0 13.0 0.00 0.23 0.00 63 1006.0
20260506130054 65 237 6.0 15.0 0.00 0.23 0.00 62 1006.1
20260506124550 64 272 6.0 15.0 0.00 0.23 0.00 65 1006.1
20260506123050 64 223 6.0 15.0 0.00 0.23 0.00 64 1006.0
20260506121547 62 281 5.0 11.0 0.00 0.23 0.00 66 1006.2
20260506120106 63 261 6.0 13.0 0.00 0.23 0.00 65 1006.2
20260506114558 62 264 9.0 14.0 0.00 0.23 0.00 64 1006.4
20260506113045 63 230 8.0 14.0 0.00 0.23 0.00 65 1006.4
20260506111552 63 263 9.0 14.0 0.00 0.23 0.00 66 1006.5
20260506110045 62 210 8.0 16.0 0.00 0.23 0.00 68 1006.6
20260506104547 61 249 6.0 14.0 0.00 0.23 0.00 70 1006.6
20260506103048 61 169 7.0 15.0 0.00 0.23 0.00 72 1006.5
20260506101549 61 242 11.0 19.0 0.00 0.23 0.00 72 1006.7
20260506100049 60 162 13.0 18.0 0.00 0.23 0.00 73 1006.7
20260506094548 60 244 6.0 16.0 0.00 0.23 0.00 74 1006.8
20260506093105 60 195 11.0 18.0 0.00 0.23 0.00 74 1006.7
20260506091554 60 217 7.0 14.0 0.00 0.23 0.00 76 1006.6
20260506090056 60 217 7.0 13.0 0.00 0.23 0.00 77 1006.7
20260506084548 60 188 8.0 14.0 0.00 0.23 0.00 78 1006.5
20260506083050 59 186 10.0 17.0 0.00 0.23 0.00 80 1006.5
20260506081545 59 242 4.0 10.0 0.00 0.23 0.00 80 1006.5
20260506073046 58 182 7.0 11.0 0.00 0.23 0.00 84 1006.5
20260506071540 58 212 4.0 12.0 0.00 0.23 0.00 86 1006.6
20260506061556 55 247 4.0 10.0 0.00 0.23 0.00 91 1006.6
20260506044546 53 160 3.0 8.0 0.00 0.23 0.00 95 1006.8
20260506043053 53 217 6.0 10.0 0.00 0.23 0.00 95 1006.7
20260506041605 53 200 6.0 10.0 0.00 0.23 0.00 95 1006.7